DL1WER-13 Weather Reports


time (UTC)temp
F
wind
direction
speed
knots
gust
knots
rain 1hr
in
rain 24hr
in
rain mn
in
humidity
%
barometer
mb
20260506132022 64 334 1.7 3.5 0.00 0.02 0.00 53 1032.3
20260506131023 64 199 0.9 2.6 0.00 0.02 0.00 52 1032.0
20260506130023 65 230 0.9 2.6 0.00 0.02 0.00 52 1031.8
20260506125023 65 282 1.7 4.3 0.00 0.02 0.00 51 1031.7
20260506124022 65 187 1.7 3.5 0.00 0.02 0.00 51 1031.7
20260506123023 64 220 2.6 4.3 0.00 0.02 0.00 51 1031.5
20260506122023 64 279 3.5 6.1 0.00 0.04 0.00 51 1031.6
20260506121022 64 294 2.6 5.2 0.00 0.04 0.00 50 1031.4
20260506120023 64 288 2.6 5.2 0.00 0.04 0.00 50 1031.9
20260506115023 65 282 2.6 7.0 0.00 0.04 0.00 47 1031.8
20260506114023 64 274 3.5 5.2 0.00 0.04 0.00 47 1031.8
20260506113023 65 213 1.7 5.2 0.00 0.04 0.00 51 1031.9
20260506112023 65 244 2.6 5.2 0.00 0.04 0.00 52 1032.0
20260506111022 64 236 2.6 4.3 0.00 0.04 0.00 51 1032.1
20260506110023 64 248 2.6 5.2 0.00 0.04 0.00 54 1032.2
20260506105022 64 249 2.6 7.0 0.00 0.04 0.00 55 1032.0
20260506104023 63 237 1.7 4.3 0.00 0.04 0.00 61 1031.9
20260506103022 62 257 1.7 3.5 0.00 0.04 0.00 61 1032.5
20260506102022 62 274 0.9 3.5 0.00 0.04 0.00 60 1032.7
20260506101022 62 221 0.9 2.6 0.00 0.04 0.00 59 1032.7
20260506100023 62 212 1.7 3.5 0.00 0.04 0.00 60 1033.1
20260506095022 62 266 1.7 3.5 0.00 0.04 0.00 59 1032.9
20260506094022 62 283 1.7 3.5 0.00 0.04 0.00 60 1032.9
20260506093023 63 242 1.7 4.3 0.00 0.04 0.00 60 1032.8
20260506092022 63 272 1.7 3.5 0.00 0.04 0.00 61 1033.0
20260506091022 62 251 1.7 3.5 0.00 0.04 0.00 63 1032.9
20260506090023 62 233 1.7 3.5 0.00 0.04 0.00 66 1032.9
20260506085023 60 257 0.9 3.5 0.00 0.04 0.00 68 1033.0
20260506084022 59 315 0.9 1.7 0.00 0.04 0.00 70 1032.9
20260506083023 59 334 0.9 1.7 0.00 0.04 0.00 70 1033.1
20260506082022 59 213 0.9 2.6 0.00 0.04 0.00 71 1033.1
20260506081022 58 245 0.9 1.7 0.00 0.04 0.00 72 1032.9
20260506073023 57 165 0.9 2.6 0.00 0.04 0.00 74 1033.2
20260506072022 57 337 0.9 2.6 0.00 0.04 0.00 77 1033.0
20260506071022 56 316 0.9 1.7 0.00 0.04 0.00 79 1033.2
20260506062022 53 270 0.9 1.7 0.00 0.04 0.00 84 1033.1
20260506061022 53 0 0.0 0.9 0.00 0.04 0.00 86 1033.2
20260506051022 52 311 0.9 2.6 0.00 0.04 0.00 94 1033.4
20260506045022 49 0 0.0 0.9 0.00 0.04 0.00 94 1033.7
20260506044022 48 298 0.0 1.7 0.00 0.04 0.00 93 1033.9
20260506043022 47 292 0.9 1.7 0.00 0.04 0.00 92 1033.7
20260506042022 47 0 0.0 0.0 0.00 0.04 0.00 92 1033.8
20260506041023 47 164 0.9 1.7 0.00 0.04 0.00 92 1033.8
20260506040023 48 199 0.0 1.7 0.00 0.04 0.00 92 1033.8
20260506035022 48 211 0.0 1.7 0.00 0.04 0.00 91 1034.1
20260506034022 48 279 0.0 1.7 0.00 0.04 0.00 91 1034.1
20260506033023 48 292 0.0 1.7 0.00 0.04 0.00 91 1034.1
20260506032022 49 131 0.0 1.7 0.00 0.04 0.00 90 1034.5
20260506031022 49 144 0.0 1.7 0.00 0.04 0.00 90 1034.3
20260506030023 49 172 0.0 1.7 0.00 0.04 0.00 89 1034.1
20260506025022 50 0 0.0 0.0 0.00 0.04 0.00 90 1034.2
20260506024023 51 217 0.0 1.7 0.00 0.04 0.00 90 1034.5
20260506023022 51 230 0.9 3.5 0.00 0.04 0.00 91 1034.2
20260506022022 51 315 0.9 1.7 0.00 0.04 0.00 92 1034.3
20260506021022 51 155 0.9 3.5 0.00 0.04 0.00 94 1034.5
20260506020023 50 87 0.9 1.7 0.00 0.04 0.00 95 1034.9
20260506015022 50 131 0.9 3.5 0.00 0.04 0.00 96 1034.6
20260506014022 49 147 0.9 3.5 0.00 0.04 0.00 96 1034.7
20260506013023 49 159 0.0 1.7 0.00 0.04 0.00 96 1034.4
20260506012023 49 264 0.0 1.7 0.00 0.04 0.00 96 1034.6
20260506011022 50 344 0.9 2.6 0.00 0.04 0.00 96 1034.9
20260506010023 50 0 0.0 0.9 0.00 0.04 0.00 95 1035.0
20260506005022 50 168 0.0 1.7 0.00 0.04 0.00 95 1034.8
20260506004022 49 241 0.0 1.7 0.00 0.04 0.00 95 1034.9
20260506003023 49 327 0.0 1.7 0.00 0.04 0.00 94 1034.9
20260506002023 50 294 0.0 1.7 0.00 0.04 0.00 95 1035.0
20260506001023 50 353 0.9 1.7 0.00 0.04 0.00 95 1035.1
20260506000023 50 325 0.0 1.7 0.00 0.04 0.00 94 1035.3
20260505235022 50 311 0.9 1.7 0.00 0.04 0.00 94 1035.2
20260505234022 50 283 0.0 1.7 0.00 0.04 0.00 94 1035.3
20260505233023 51 291 0.0 1.7 0.00 0.04 0.00 94 1035.5
20260505232022 51 160 0.9 2.6 0.00 0.04 0.00 93 1035.4
20260505231022 51 199 0.9 1.7 0.00 0.04 0.00 93 1035.4
20260505230023 51 205 0.9 1.7 0.00 0.04 0.00 93 1035.3
20260505225022 51 236 0.9 2.6 0.00 0.04 0.00 93 1035.5
20260505224022 52 210 0.0 1.7 0.00 0.04 0.00 93 1035.6
20260505223023 52 323 0.9 3.5 0.00 0.04 0.00 93 1035.4
20260505222022 52 323 1.7 3.5 0.00 0.04 0.00 93 1035.6
20260505221022 53 149 1.7 3.5 0.00 0.04 0.00 92 1035.6
20260505220026 53 224 1.7 3.5 0.00 0.04 0.00 92 1035.5
20260505215022 53 335 1.7 4.3 0.00 0.04 0.04 92 1035.3
20260505214023 53 326 1.7 4.3 0.00 0.04 0.04 91 1035.5
20260505213022 53 323 1.7 4.3 0.01 0.04 0.04 91 1035.3
20260505212023 53 324 2.6 5.2 0.01 0.04 0.04 90 1035.2
20260505211023 53 289 1.7 4.3 0.02 0.04 0.04 90 1035.3
20260505210023 53 296 1.7 5.2 0.02 0.04 0.04 90 1035.5
20260505205022 54 274 0.9 3.5 0.02 0.04 0.04 90 1035.4
20260505204023 54 209 1.7 6.1 0.02 0.04 0.04 88 1035.5
20260505203023 54 322 2.6 6.1 0.01 0.02 0.02 86 1035.5
20260505202022 56 269 3.5 7.0 0.01 0.02 0.02 78 1035.6
20260505201023 57 349 2.6 6.1 0.00 0.01 0.01 75 1035.6
20260505200022 57 305 4.3 12.2 0.00 0.01 0.01 72 1035.4
20260505195022 58 265 5.2 10.4 0.00 0.01 0.01 70 1035.4
20260505194022 58 181 2.6 9.6 0.00 0.01 0.01 73 1035.2
20260505193022 58 260 1.7 4.3 0.00 0.01 0.01 74 1035.0
20260505192022 58 282 1.7 6.1 0.00 0.01 0.01 75 1034.9
20260505191022 58 202 0.0 2.6 0.00 0.01 0.01 76 1034.3
20260505190022 58 159 0.9 3.5 0.00 0.01 0.01 76 1034.5
20260505185022 58 1 0.0 1.7 0.00 0.01 0.01 76 1034.2
20260505184022 58 0 0.0 0.9 0.00 0.01 0.01 75 1034.2
20260505183022 58 181 0.0 0.9 0.00 0.01 0.01 75 1034.2
20260505182022 58 173 0.0 1.7 0.00 0.01 0.01 74 1034.0
20260505181021 59 169 0.0 1.7 0.00 0.01 0.01 73 1034.1
20260505180023 59 171 0.9 1.7 0.00 0.01 0.01 72 1033.9
20260505175022 60 266 0.9 2.6 0.00 0.01 0.01 71 1033.7
20260505174021 60 137 0.9 1.7 0.00 0.01 0.01 71 1033.6
20260505173023 60 198 0.0 1.7 0.00 0.01 0.01 72 1033.4
20260505172022 61 320 0.0 1.7 0.00 0.01 0.01 70 1033.3
20260505171022 61 158 0.9 2.6 0.00 0.01 0.01 70 1033.3
20260505170023 61 214 1.7 3.5 0.00 0.01 0.01 71 1033.1
20260505165022 61 233 0.9 3.5 0.00 0.01 0.01 72 1033.1
20260505164021 61 235 0.9 2.6 0.00 0.01 0.01 71 1033.3
20260505163022 62 144 0.9 1.7 0.00 0.01 0.01 69 1033.8
20260505162022 62 279 1.7 3.5 0.00 0.01 0.01 68 1033.8
20260505161021 62 314 1.7 3.5 0.00 0.01 0.01 67 1033.9
20260505153023 62 178 1.7 3.5 0.00 0.01 0.01 68 1033.6
20260505152022 62 156 1.7 5.2 0.00 0.01 0.01 66 1033.8
20260505151022 62 229 2.6 4.3 0.00 0.01 0.01 66 1033.8